METEOSAT-9 (MSG-2)

Last updated on Sat Apr 13 2024 01:02:16 GMT+0100 (British Summer Time)

1 28912U 05049B 24103.52986087 .00000119 00000+0 00000+0 0 9994 2 28912 7.5381 61.4017 0001519 313.0829 63.1609 1.00272638 67073
UTC large
Height (km)
Speed (km/s)
/
Latitude / Longitude
Inclination (degrees)
Orbital Period (minutes)
Azimuth
Elevation
Range (km)
Doppler Factor

Next 0 passes for location: London (51.5072 / 0.1276)

Sorry there are no passes over London.